Weather History for Pascagoula, MS

Change the Weather History Date:

Thursday, October 20, 2011

  Actual Average Record
Temperature  
Mean Temperature 51 °F -  
Max Temperature 66 °F 76 °F 89 °F (1963)
Min Temperature 36 °F 55 °F 33 °F (1989)
Degree Days  
Heating Degree Days 14    
Growing Degree Days 1 (Base 50)    
Moisture  
Dew Point 35 °F    
Average Humidity 63    
Maximum Humidity 93    
Minimum Humidity 25    
Precipitation  
Precipitation 0.00 in - - ()
Sea Level Pressure  
Sea Level Pressure 30.09 in    
Wind  
Wind Speed 2 mph (NW)    
Max Wind Speed 9 mph    
Max Gust Speed -    
Visibility 10 miles    
Events      
Averages and records for this station are not official NWS values.
T = Trace of Precipitation, MM = Missing Value Source: NWS Daily Summary

Daily Weather History Graph

Daily Weather History Graph

Search for Another Location

Airport:

Trip Planner

Search our weather history database for the weather conditions in past years. The results will help you decide how hot, cold, wet, or windy it might be!

Date:

Astronomy

Oct. 20, 2011 Rise Set
Actual Time 6:59 AM CDT 6:17 PM CDT
Civil Twilight 6:35 AM CDT 6:42 PM CDT
Nautical Twilight 6:07 AM CDT 7:10 PM CDT
Astronomical Twilight 5:39 AM CDT 7:38 PM CDT
Moon 12:13 AM CDT (10/20) 2:00 PM CDT (10/20)
Length of Visible Light 12h 06m
Length of Day
11h 18m
Last Quarter, 44% of the Moon is Illuminated
Oct 20
Last Quarter
Oct 26
New
Nov 2
First Quarter
Nov 10
Full
Nov 18
Last Quarter

Hourly Weather History & Observations

Time (CDT) Temp. Dew Point Humidity Pressure Visibility Wind Dir Wind Speed Gust Speed Precip Events Conditions
12:53 AM 39.0 °F 37.0 °F 93% 30.04 in 10.0 mi Calm Calm - N/A   Clear
1:53 AM 39.0 °F 37.0 °F 93% 30.04 in 9.0 mi Calm Calm - N/A   Clear
3:53 AM 37.0 °F 35.1 °F 93% 30.05 in 9.0 mi Calm Calm - N/A   Clear
6:53 AM 36.0 °F 34.0 °F 93% 30.08 in 8.0 mi Calm Calm - N/A   Clear
7:53 AM 39.9 °F 37.9 °F 93% 30.10 in 10.0 mi Calm Calm - N/A   Clear
8:53 AM 52.0 °F 41.0 °F 66% 30.13 in 10.0 mi Variable 3.5 mph - N/A   Clear
9:53 AM 57.9 °F 37.0 °F 46% 30.14 in 10.0 mi Variable 6.9 mph - N/A   Clear
10:53 AM 60.1 °F 32.0 °F 35% 30.13 in 10.0 mi Variable 3.5 mph - N/A   Clear
11:53 AM 62.1 °F 30.9 °F 31% 30.11 in 10.0 mi WNW 8.1 mph - N/A   Clear
12:53 PM 64.0 °F 30.9 °F 29% 30.08 in 10.0 mi NNW 9.2 mph - N/A   Clear
1:53 PM 64.9 °F 33.1 °F 31% 30.05 in 10.0 mi Variable 4.6 mph - N/A   Clear
2:53 PM 66.0 °F 30.0 °F 26% 30.04 in 10.0 mi Variable 5.8 mph - N/A   Clear
3:53 PM 64.9 °F 28.0 °F 25% 30.04 in 10.0 mi Variable 5.8 mph - N/A   Clear
4:53 PM 64.0 °F 30.9 °F 29% 30.05 in 10.0 mi NW 6.9 mph - N/A   Clear
5:53 PM 61.0 °F 34.0 °F 36% 30.06 in 10.0 mi NW 3.5 mph - N/A   Clear
6:53 PM 50.0 °F 39.9 °F 68% 30.09 in 10.0 mi Calm Calm - N/A   Clear
7:53 PM 46.0 °F 39.9 °F 79% 30.10 in 10.0 mi Calm Calm - N/A   Clear
8:53 PM 44.1 °F 39.0 °F 82% 30.11 in 10.0 mi Calm Calm - N/A   Clear
9:53 PM 43.0 °F 39.9 °F 89% 30.13 in 10.0 mi Calm Calm - N/A   Clear
10:53 PM 42.1 °F 39.9 °F 92% 30.14 in 10.0 mi Calm Calm - N/A   Clear
11:53 PM 39.9 °F 37.9 °F 93% 30.15 in 10.0 mi Calm Calm - N/A   Clear